Lid_Strength_Index
0 2 4 6 10 11 14 13 10 11 10 8 7 8 9 8 10 13 3 3 3 3 3 3 2 2 2 2 2 2 2 2 2 3 3 3 3 3 3 3 3 3 2 2 2 2 2 2 3
2 4 6 8 12 15 13 11 11 9 9 8 8 8 8 9 6 6 4 3 3 3 3 4 2 2 2 2 2 2 2 3 3 3 3 3 3 3 3 3 3 3 3 2 2 2 3 3 4
3 4 8 10 13 15 14 11 9 9 8 8 9 7 7 8 5 3 2 4 4 4 4 4 3 3 3 3 2 3 3 3 3 3 3 3 3 3 4 3 3 3 3 3 3 3 4 4 4
5 7 8 11 13 11 11 10 9 9 9 8 9 9 6 4 4 3 4 4 5 5 5 3 3 3 3 3 3 3 3 3 4 4 4 4 4 4 4 4 4 3 4 4 4 4 4 5 5
6 8 11 12 12 11 9 8 8 8 9 9 9 10 8 5 3 3 4 4 5 5 4 4 3 3 3 3 3 3 4 4 4 4 5 4 4 4 4 4 4 4 4 4 4 5 5 5 5
8 9 12 14 12 9 9 7 7 8 9 9 10 10 9 4 4 4 4 5 5 5 5 4 3 3 3 3 3 4 4 5 5 5 6 5 5 5 5 5 5 5 5 5 5 5 5 6 6
9 10 12 12 12 11 9 7 8 8 9 9 9 11 9 5 4 4 5 6 5 5 5 5 6 4 3 4 3 4 5 5 5 6 6 6 6 6 5 6 5 6 6 6 6 6 6 7 7
8 10 12 12 12 12 8 7 7 8 10 8 9 11 10 6 4 5 5 6 6 6 6 6 6 7 8 8 4 5 5 6 6 7 7 7 7 7 7 7 7 6 6 6 6 6 7 7 7
9 12 14 13 11 10 7 9 9 8 9 9 8 10 8 5 5 6 7 7 7 6 7 7 7 8 8 8 5 6 6 7 8 9 8 10 12 12 11 8 7 7 7 7 7 7 8 8 9
11 14 13 10 10 8 7 9 10 9 11 11 10 9 8 6 6 7 7 8 8 8 7 8 8 8 10 9 11 11 11 12 12 13 13 13 13 11 11 9 8 8 8 8 8 9 9 11 13
12 13 11 10 10 7 8 10 10 10 11 9 10 10 8 7 7 7 8 8 9 8 8 10 10 9 11 11 12 12 12 12 12 13 13 14 13 13 13 14 14 14 10 13 13 13 13 13 13
13 11 11 9 7 8 9 9 10 10 9 9 8 8 8 7 7 8 9 10 10 10 10 10 11 11 12 11 12 12 13 13 13 13 13 14 14 14 14 14 14 14 14 14 15 14 14 14 14
12 10 9 7 9 9 9 10 10 10 9 9 8 8 8 8 8 8 9 10 11 11 10 11 11 12 12 12 12 12 13 13 13 13 13 14 14 14 14 14 14 14 14 15 15 14 14 14 14
10 9 9 9 9 10 10 11 10 10 9 9 9 9 9 8 9 10 10 11 11 11 11 11 11 11 12 13 13 13 13 14 13 13 13 13 14 14 14 14 14 14 14 15 15 15 15 15 15
9 10 9 10 10 10 9 10 10 9 9 9 10 10 9 9 10 10 10 11 11 11 11 12 12 11 12 13 13 13 13 13 14 13 13 12 13 14 14 14 14 14 14 14 14 15 15 15 14
11 11 12 10 10 10 9 12 8 9 9 10 10 10 9 11 11 11 10 11 12 12 12 12 10 12 12 12 13 13 13 14 13 13 13 12 12 13 14 14 14 14 14 14 15 15 15 14 14
12 14 13 12 9 10 11 11 10 9 9 10 10 10 11 13 13 11 11 11 12 12 12 12 12 12 13 13 13 13 14 13 13 13 13 13 12 12 14 14 14 14 14 15 15 14 14 14 13
13 13 14 14 12 10 12 11 10 10 9 10 10 11 13 14 13 12 12 12 12 12 12 13 13 13 14 14 14 14 14 14 14 14 13 13 13 13 13 14 14 14 15 15 14 14 14 13 14
12 13 14 13 11 10 10 9 9 10 10 11 11 11 14 14 13 12 12 12 12 13 14 14 14 14 14 15 14 15 15 15 14 14 13 13 13 13 13 14 14 15 15 14 14 14 14 14 13
12 13 13 11 11 11 12 11 10 10 10 10 11 12 14 14 14 13 12 12 13 14 15 14 15 14 14 14 15 14 15 15 15 14 13 13 13 13 13 14 15 15 14 14 14 14 14 13 13
13 13 13 12 11 11 12 12 11 10 10 9 10 10 12 13 13 13 13 13 14 15 15 15 15 14 13 14 14 14 14 14 15 15 14 14 13 13 14 14 15 14 13 14 13 13 14 14 12
14 11 11 12 12 14 11 16 12 12 10 9 9 11 12 12 12 12 13 14 15 16 15 15 14 14 14 14 14 15 16 15 15 15 15 15 14 14 14 14 14 13 13 13 13 12 13 13 12
11 9 11 11 13 15 14 15 13 12 12 11 10 11 12 12 12 13 13 14 15 16 16 15 14 14 14 14 14 15 15 14 15 16 16 15 15 15 14 13 13 13 13 13 13 13 12 11 10
9 11 12 13 14 16 14 15 15 14 12 10 11 11 12 12 13 13 14 15 16 16 16 14 14 14 14 14 14 13 14 16 16 16 17 16 16 15 14 13 13 13 13 13 13 12 12 11 11
11 13 16 17 17 17 14 15 15 12 11 10 11 13 13 13 14 15 15 15 16 16 14 14 14 14 14 14 13 14 15 16 16 17 17 17 17 15 14 13 13 13 13 12 12 12 11 11 12
12 13 16 18 18 17 14 16 14 11 11 11 12 12 13 14 14 15 15 15 15 14 14 14 13 15 14 14 14 15 15 16 16 17 17 17 16 15 13 12 12 13 12 12 11 11 12 11 12
12 14 12 15 16 17 16 15 12 11 12 12 13 13 14 14 15 15 15 15 14 14 14 14 14 14 14 14 14 15 16 16 17 16 16 16 15 12 12 12 13 12 12 11 11 12 12 12 12
12 11 15 15 18 19 17 16 15 12 11 12 14 14 14 14 14 14 14 14 13 13 14 14 14 14 13 14 15 15 16 16 15 16 16 16 14 13 13 12 12 12 11 11 11 11 11 11 12
12 13 13 14 15 18 19 16 11 12 11 13 14 14 14 14 14 14 13 13 13 14 14 14 13 13 14 14 15 16 16 15 16 16 16 14 13 13 12 12 12 11 11 11 11 10 10 11 12
11 13 13 15 16 15 17 17 11 12 12 12 13 13 13 13 14 14 13 14 14 14 13 12 12 13 14 14 15 15 16 16 16 15 14 13 13 12 12 12 12 11 11 10 11 10 11 12 12